Regional Weather Roundup
Issued by NWS

Home | Current Version | Previous Version | Text Only | Print | Product List | Glossary Off
Versions: 1 2 3 4 5 6 7 8 9 10 11 12 13 14 15 16 17 18 19 20 21 22 23 24 25 26 27 28 29 30 31 32 33 34 35 36 37 38 39 40 41 42 43 44 45 46 47 48 49 50

000
ASUS43 KLSX 211310
RWRMO

WEATHER SUMMARY FOR MISSOURI
NATIONAL WEATHER SERVICE SPRINGFIELD MO
700 AM CST TUE FEB 21 2017

NOTE: "FAIR" INDICATES FEW OR NO CLOUDS BELOW 12,000 FEET WITH NO
       SIGNIFICANT WEATHER AND/OR OBSTRUCTIONS TO VISIBILITY.
       CURRENT SKY AND/OR WEATHER CONDITIONS ARE NOT AVAILABLE FOR
       CHILLICOTHE AND FARMINGTON.

MOZ001>031-035>038-043-044-053-054-211400-
...NORTHERN AND WESTERN MISSOURI...

CITY           SKY/WX    TMP DP  RH WIND       PRES   REMARKS
KANSAS CTY INT CLOUDY    44  41  89 N9        29.96R
KANSAS C DTWN  PTCLDY    50  44  80 N5        29.95S
LEE`S SUMMIT   CLOUDY    49  46  90 NE5       29.96R
ST JOSEPH      CLEAR     37  36  96 NE5       29.98R
CHILLICOTHE      N/A     48  45  89 CALM      29.96S
KIRKSVILLE     CLOUDY    47  43  86 NE7       29.95S

$$
MOZ066>068-077>081-088>096-101>105-211400-
...SOUTHWEST MISSOURI...

CITY           SKY/WX    TMP DP  RH WIND       PRES   REMARKS
SPRINGFIELD    PTCLDY    54  53  97 N10       29.89F
JOPLIN         FOG       47  47 100 VRB5      29.93R VSB 1/4
BRANSON        CLOUDY    55  55 100 NW8       29.95R

$$
MOZ032>034-039>042-045>050-055>058-069>072-211400-
...CENTRAL MISSOURI...

CITY           SKY/WX    TMP DP  RH WIND       PRES   REMARKS
COLUMBIA       FOG       54  54 100 N6        29.92R VSB 1/2
JEFFERSON CITY MOCLDY    56  56 100 CALM      29.91S FOG
ROLLA          LGT RAIN  57  57 100 E8        29.88F
SEDALIA        PTCLDY    53  52  96 N7        29.94R
WHITEMAN AFB   MOCLDY    51  51 100 N8        29.92S
WARRENSBURG    CLOUDY    50  46  87 N7        29.95S
OSAGE BEACH    CLOUDY    56  55  97 N5        29.92S

$$
MOZ051-052-059>065-211400-
...EAST CENTRAL MISSOURI...

CITY           SKY/WX    TMP DP  RH WIND       PRES   REMARKS
ST LOUIS INTL  LGT RAIN  61  59  93 NE6       29.92S FOG
SPIRIT OF STL  LGT RAIN  57  57 100 CALM      29.92R VSB 1/4
ST CHARLES     LGT RAIN  57  57 100 NE3       29.92S FOG

$$
MOZ072>076-082>087-097>100-106>115-211400-
...SOUTH CENTRAL AND SOUTHEAST MISSOURI...

CITY           SKY/WX    TMP DP  RH WIND       PRES   REMARKS
CAPE GIRARDEAU CLOUDY    55  52  89 E3        29.90F
FARMINGTON     FOG       56  56 100 E5        29.93R VSB 1/4
POPLAR BLUFF   LGT RAIN  58  57  97 NE9       29.86F
WEST PLAINS    LGT RAIN  57  55  93 NE8       29.87F

$$




USA.gov is the U.S. government's official web portal to all federal, state and local government web resources and services.